Norwood, MA

9:53 AM EST on December 15, 2017 (GMT -0500)
Norwood Memorial

Weather History for KOWD - October, 2012

Change the Weather History Date:

Tuesday, October 9, 2012

  Actual Average Record
Temperature  
Mean Temperature 53 °F -  
Max Temperature 61 °F 62 °F 86 °F (2011)
Min Temperature 46 °F 39 °F 21 °F (2001)
Degree Days  
Heating Degree Days 12    
Growing Degree Days 3 (Base 50)    
Moisture  
Dew Point 47 °F    
Average Humidity 75    
Maximum Humidity 90    
Minimum Humidity 60    
Precipitation  
Precipitation 0.00 in - - ()
Sea Level Pressure  
Sea Level Pressure 30.21 in    
Wind  
Wind Speed 4 mph (NE)    
Max Wind Speed 12 mph    
Max Gust Speed 17 mph    
Visibility 10 miles    
Events      
Averages and records for this station are not official NWS values.
T = Trace of Precipitation, MM = Missing Value Source: NWS Daily Summary

Daily Weather History Graph

Daily Weather History Graph

Search for Another Location

Airport or City:

Trip Planner

Search our weather history database for the weather conditions in past years. The results will help you decide how hot, cold, wet, or windy it might be!

Date:

Astronomy

Oct. 09, 2012 Rise Set
Actual Time 6:51 AM EDT 6:11 PM EDT
Civil Twilight 6:22 AM EDT 6:39 PM EDT
Nautical Twilight 5:50 AM EDT 7:12 PM EDT
Astronomical Twilight 5:17 AM EDT 7:44 PM EDT
Moon 12:18 AM EDT (10/9) 2:43 PM EDT (10/9)
Length of Visible Light 12h 16m
Length of Day
11h 20m
Last Quarter, 37% of the Moon is Illuminated
Oct 9
Last Quarter
Oct 15
New
Oct 21
First Quarter
Oct 29
Full
Nov 6
Last Quarter

Hourly Weather History & Observations

Time (EDT) Temp. Dew Point Humidity Pressure Visibility Wind Dir Wind Speed Gust Speed Precip Events Conditions
12:53 AM 48.0 °F 44.1 °F 86% 30.29 in 10.0 mi Calm Calm - N/A   Partly Cloudy
1:53 AM 46.9 °F 44.1 °F 90% 30.30 in 10.0 mi Calm Calm - N/A   Partly Cloudy
2:53 AM 48.0 °F 45.0 °F 89% 30.26 in 10.0 mi Calm Calm - N/A   Mostly Cloudy
5:08 AM 48.2 °F 44.6 °F 87% 30.25 in 10.0 mi Calm Calm - N/A   Mostly Cloudy
5:53 AM 52.0 °F 46.9 °F 83% 30.25 in 10.0 mi NNE 3.5 mph - N/A   Overcast
6:02 AM 53.6 °F 48.2 °F 82% 30.24 in 10.0 mi Calm Calm - N/A   Overcast
6:43 AM 53.6 °F 48.2 °F 82% 30.25 in 10.0 mi Calm Calm - N/A   Overcast
6:53 AM 54.0 °F 48.9 °F 83% 30.26 in 10.0 mi Calm Calm - N/A   Overcast
8:53 AM 55.9 °F 48.0 °F 75% 30.26 in 10.0 mi ENE 4.6 mph - N/A   Overcast
9:00 AM 55.4 °F 48.2 °F 77% 30.26 in 10.0 mi East 6.9 mph - N/A   Overcast
9:53 AM 57.0 °F 48.0 °F 72% 30.26 in 10.0 mi ENE 6.9 mph - N/A   Overcast
10:53 AM 57.9 °F 48.0 °F 70% 30.25 in 10.0 mi ENE 10.4 mph - N/A   Overcast
11:53 AM 60.1 °F 46.0 °F 60% 30.23 in 10.0 mi East 6.9 mph - N/A   Overcast
12:53 PM 59.0 °F 48.0 °F 67% 30.22 in 10.0 mi NE 10.4 mph 17.3 mph N/A   Overcast
1:53 PM 57.9 °F 50.0 °F 75% 30.20 in 10.0 mi NE 10.4 mph - N/A   Overcast
2:19 PM 57.2 °F 51.8 °F 82% 30.20 in 10.0 mi NNE 8.1 mph - 0.00 in   Overcast
2:30 PM 57.2 °F 50.0 °F 77% 30.20 in 10.0 mi NE 8.1 mph - 0.00 in   Overcast
2:53 PM 57.0 °F 48.9 °F 74% 30.19 in 10.0 mi NE 9.2 mph 17.3 mph 0.00 in   Overcast
3:53 PM 57.0 °F 48.0 °F 72% 30.18 in 10.0 mi ENE 9.2 mph - N/A   Overcast
4:16 PM 57.2 °F 46.4 °F 67% 30.18 in 10.0 mi NE 11.5 mph 16.1 mph N/A   Overcast
4:23 PM 57.2 °F 46.4 °F 67% 30.18 in 10.0 mi ENE 8.1 mph - N/A   Overcast
4:53 PM 57.0 °F 46.9 °F 69% 30.17 in 10.0 mi ENE 8.1 mph - N/A   Overcast
5:51 PM 55.4 °F 46.4 °F 72% 30.17 in 10.0 mi NE 6.9 mph - N/A   Overcast
5:53 PM 55.9 °F 46.9 °F 72% 30.17 in 10.0 mi ENE 8.1 mph - N/A   Overcast
6:53 PM 55.9 °F 45.0 °F 67% 30.17 in 10.0 mi NE 5.8 mph - N/A   Overcast
7:53 PM 55.9 °F 44.1 °F 64% 30.16 in 10.0 mi ENE 6.9 mph - N/A   Overcast
8:53 PM 55.9 °F 42.1 °F 60% 30.16 in 10.0 mi NE 3.5 mph - N/A   Overcast
9:53 PM 55.9 °F 45.0 °F 67% 30.16 in 10.0 mi NNE 4.6 mph - N/A   Overcast
10:53 PM 55.0 °F 46.0 °F 72% 30.14 in 10.0 mi NNE 3.5 mph - N/A   Overcast
11:53 PM 55.0 °F 48.0 °F 77% 30.12 in 10.0 mi ENE 5.8 mph - N/A   Mostly Cloudy